| time (UTC) | temp C | wind direction | speed KPH | gust KPH | rain 1hr cm | rain 24hr cm | rain mn cm | humidity % | barometer mb |
| 20260505072901 | -17 | 10 | 9.7 | 16.1 | 0.00 | 0.00 | 0.00 | 1006.7 | |
| 20260505072629 | -17 | 10 | 9.7 | 16.1 | 0.00 | 0.00 | 0.00 | 1006.7 | |
| 20260505072117 | -17 | 217 | 8.0 | 14.5 | 0.00 | 0.00 | 0.00 | 1006.7 | |
| 20260505071339 | -17 | 205 | 8.0 | 16.1 | 0.00 | 0.00 | 0.00 | 1006.8 | |
| 20260505070320 | -17 | 210 | 8.0 | 12.9 | 0.00 | 0.00 | 0.00 | 1007.0 | |
| 20260505065817 | -17 | 194 | 6.4 | 12.9 | 0.00 | 0.00 | 0.00 | 1007.1 | |
| 20260505065316 | -17 | 191 | 6.4 | 11.3 | 0.00 | 0.00 | 0.00 | 1007.2 | |
| 20260505064816 | -17 | 204 | 6.4 | 12.9 | 0.00 | 0.00 | 0.00 | 1007.2 | |
| 20260505064315 | -17 | 10 | 6.4 | 12.9 | 0.00 | 0.00 | 0.00 | 1007.3 | |
| 20260505063809 | -17 | 10 | 6.4 | 12.9 | 0.00 | 0.00 | 0.00 | 1007.4 | |
| 20260505063255 | -17 | 10 | 6.4 | 12.9 | 0.00 | 0.00 | 0.00 | 1007.4 | |
| 20260505062756 | -17 | 10 | 8.0 | 14.5 | 0.00 | 0.00 | 0.00 | 1007.5 | |
| 20260505062246 | -17 | 199 | 8.0 | 14.5 | 0.00 | 0.00 | 0.00 | 1007.4 | |
| 20260505061737 | -17 | 10 | 8.0 | 12.9 | 0.00 | 0.00 | 0.00 | 1007.5 | |
| 20260505061231 | -17 | 204 | 6.4 | 14.5 | 0.00 | 0.00 | 0.00 | 1007.5 | |
| 20260505060726 | -17 | 196 | 6.4 | 14.5 | 0.00 | 0.00 | 0.00 | 1007.6 | |
| 20260505060223 | -17 | 10 | 6.4 | 9.7 | 0.00 | 0.00 | 0.00 | 1007.6 | |
| 20260505055720 | -17 | 190 | 6.4 | 9.7 | 0.00 | 0.00 | 0.00 | 1007.7 | |
| 20260505055211 | -17 | 200 | 8.0 | 12.9 | 0.00 | 0.00 | 0.00 | 1007.7 | |
| 20260505054933 | -17 | 213 | 8.0 | 12.9 | 0.00 | 0.00 | 0.00 | 1007.6 | |
| 20260505054154 | -17 | 208 | 8.0 | 12.9 | 0.00 | 0.00 | 0.00 | 1007.7 | |
| 20260505053917 | -17 | 195 | 8.0 | 14.5 | 0.00 | 0.00 | 0.00 | 1007.8 | |
| 20260505053134 | -17 | 10 | 8.0 | 16.1 | 0.00 | 0.00 | 0.00 | 1007.9 | |
| 20260505052626 | -17 | 210 | 9.7 | 16.1 | 0.00 | 0.00 | 0.00 | 1008.0 | |
| 20260505052117 | -17 | 203 | 6.4 | 14.5 | 0.00 | 0.00 | 0.00 | 1008.1 | |
| 20260505051606 | -17 | 10 | 1.6 | 11.3 | 0.00 | 0.00 | 0.00 | 1008.0 | |
| 20260505050546 | -17 | 10 | 0.0 | 6.4 | 0.00 | 0.00 | 0.00 | 1007.9 | |
| 20260505050317 | -17 | 213 | 0.0 | 6.4 | 0.00 | 0.00 | 0.00 | 1007.9 | |
| 20260505041418 | -17 | 10 | 12.9 | 17.7 | 0.00 | 0.00 | 0.00 | 1008.0 | |
| 20260505040906 | -17 | 194 | 12.9 | 17.7 | 0.00 | 0.00 | 0.00 | 1008.0 | |
| 20260505040355 | -17 | 10 | 11.3 | 17.7 | 0.00 | 0.00 | 0.00 | 1008.0 | |
| 20260505035845 | -17 | 10 | 9.7 | 17.7 | 0.00 | 0.00 | 0.00 | 1008.1 | |
| 20260505035336 | -17 | 10 | 9.7 | 16.1 | 0.00 | 0.00 | 0.00 | 1008.1 | |
| 20260505034825 | -17 | 10 | 9.7 | 16.1 | 0.00 | 0.00 | 0.00 | 1008.1 | |
| 20260505034315 | -17 | 10 | 9.7 | 16.1 | 0.00 | 0.00 | 0.00 | 1008.2 | |
| 20260505033805 | -17 | 10 | 9.7 | 16.1 | 0.00 | 0.00 | 0.00 | 1008.2 | |
| 20260505033300 | -17 | 10 | 9.7 | 16.1 | 0.00 | 0.00 | 0.00 | 1008.2 | |
| 20260505032749 | -17 | 10 | 11.3 | 16.1 | 0.00 | 0.00 | 0.00 | 1008.0 | |
| 20260505032240 | -17 | 10 | 9.7 | 16.1 | 0.00 | 0.00 | 0.00 | 1008.2 | |
| 20260505031727 | -17 | 10 | 9.7 | 16.1 | 0.00 | 0.00 | 0.00 | 1008.1 | |
| 20260505031217 | -17 | 10 | 11.3 | 16.1 | 0.00 | 0.00 | 0.00 | 1007.9 | |
| 20260505030707 | -17 | 10 | 11.3 | 16.1 | 0.00 | 0.00 | 0.00 | 1008.0 | |
| 20260505030158 | -17 | 10 | 9.7 | 16.1 | 0.00 | 0.00 | 0.00 | 1008.0 | |
| 20260505025647 | -17 | 10 | 9.7 | 16.1 | 0.00 | 0.00 | 0.00 | 1008.0 | |
| 20260505025136 | -17 | 10 | 11.3 | 17.7 | 0.00 | 0.00 | 0.00 | 1008.0 | |
| 20260505024626 | -17 | 10 | 11.3 | 17.7 | 0.00 | 0.00 | 0.00 | 1008.2 | |
| 20260505024107 | -17 | 10 | 8.0 | 14.5 | 0.00 | 0.00 | 0.00 | 1008.3 | |
| 20260505023549 | -17 | 10 | 8.0 | 14.5 | 0.00 | 0.00 | 0.00 | 1008.1 | |
| 20260505023040 | -17 | 10 | 9.7 | 16.1 | 0.00 | 0.00 | 0.00 | 1008.1 | |
| 20260505022529 | -17 | 10 | 9.7 | 16.1 | 0.00 | 0.00 | 0.00 | 1008.1 | |
| 20260505022019 | -17 | 10 | 8.0 | 16.1 | 0.00 | 0.00 | 0.00 | 1008.1 | |
| 20260505021509 | -17 | 10 | 8.0 | 14.5 | 0.00 | 0.00 | 0.00 | 1008.2 | |
| 20260505020957 | -17 | 10 | 8.0 | 14.5 | 0.00 | 0.00 | 0.00 | 1008.0 | |
| 20260505020439 | -17 | 10 | 8.0 | 14.5 | 0.00 | 0.00 | 0.00 | 1008.0 | |
| 20260505015930 | -17 | 10 | 9.7 | 14.5 | 0.00 | 0.00 | 0.00 | 1007.9 | |
| 20260505015420 | -17 | 10 | 9.7 | 16.1 | 0.00 | 0.00 | 0.00 | 1007.9 | |
| 20260505015139 | -17 | 10 | 6.4 | 16.1 | 0.00 | 0.00 | 0.00 | 1007.8 | |
| 20260505014358 | -17 | 10 | 4.8 | 14.5 | 0.00 | 0.00 | 0.00 | 1007.8 | |
| 20260505013852 | -17 | 10 | 8.0 | 16.1 | 0.00 | 0.00 | 0.00 | 1007.7 | |
| 20260505013341 | -17 | 10 | 8.0 | 16.1 | 0.00 | 0.00 | 0.00 | 1007.7 | |
| 20260505012842 | -17 | 10 | 8.0 | 16.1 | 0.00 | 0.00 | 0.00 | 1007.7 | |
| 20260505012340 | -17 | 10 | 8.0 | 16.1 | 0.00 | 0.00 | 0.00 | 1007.7 | |
| 20260505011841 | -17 | 10 | 11.3 | 17.7 | 0.00 | 0.00 | 0.00 | 1007.8 | |
| 20260505011341 | -17 | 10 | 14.5 | 20.9 | 0.00 | 0.00 | 0.00 | 1007.7 | |
| 20260505010832 | -17 | 10 | 14.5 | 20.9 | 0.00 | 0.00 | 0.00 | 1007.6 | |
| 20260505010322 | -17 | 10 | 12.9 | 19.3 | 0.00 | 0.00 | 0.00 | 1007.5 | |
| 20260505010041 | -17 | 10 | 12.9 | 20.9 | 0.00 | 0.00 | 0.00 | 1007.5 | |
| 20260505005258 | -17 | 10 | 16.1 | 20.9 | 0.00 | 0.00 | 0.00 | 1007.6 | |
| 20260505004749 | -17 | 10 | 17.7 | 24.1 | 0.00 | 0.00 | 0.00 | 1007.6 | |
| 20260505004237 | -17 | 10 | 17.7 | 24.1 | 0.00 | 0.00 | 0.00 | 1007.7 | |
| 20260505003727 | -17 | 10 | 16.1 | 24.1 | 0.00 | 0.00 | 0.00 | 1007.7 | |
| 20260505003217 | -17 | 10 | 16.1 | 24.1 | 0.00 | 0.00 | 0.00 | 1007.7 | |
| 20260505002157 | -17 | 10 | 16.1 | 22.5 | 0.00 | 0.00 | 0.00 | 1007.8 | |
| 20260505001919 | -17 | 169 | 16.1 | 22.5 | 0.00 | 0.00 | 0.00 | 1007.9 | |
| 20260505001137 | -17 | 10 | 16.1 | 22.5 | 0.00 | 0.00 | 0.00 | 1008.0 | |
| 20260505000627 | -17 | 10 | 16.1 | 22.5 | 0.00 | 0.00 | 0.00 | 1008.0 | |
| 20260504235607 | -17 | 10 | 17.7 | 24.1 | 0.00 | 0.00 | 0.00 | 1008.1 | |
| 20260504235057 | -17 | 10 | 17.7 | 24.1 | 0.00 | 0.00 | 0.00 | 1008.2 | |
| 20260504234544 | -17 | 10 | 17.7 | 24.1 | 0.00 | 0.00 | 0.00 | 1008.3 | |
| 20260504234033 | -17 | 10 | 17.7 | 24.1 | 0.00 | 0.00 | 0.00 | 1008.3 | |
| 20260504233753 | -17 | 10 | 17.7 | 25.7 | 0.00 | 0.00 | 0.00 | 1008.2 | |
| 20260504233013 | -17 | 144 | 19.3 | 25.7 | 0.00 | 0.00 | 0.00 | 1008.3 | |
| 20260504232724 | -17 | 10 | 19.3 | 24.1 | 0.00 | 0.00 | 0.00 | 1008.3 | |
| 20260504231943 | -17 | 10 | 17.7 | 22.5 | 0.00 | 0.00 | 0.00 | 1008.4 | |
| 20260504231433 | -17 | 160 | 17.7 | 25.7 | 0.00 | 0.00 | 0.00 | 1008.4 | |
| 20260504230925 | -17 | 10 | 19.3 | 25.7 | 0.00 | 0.00 | 0.00 | 1008.6 | |
| 20260504230647 | -17 | 10 | 17.7 | 25.7 | 0.00 | 0.00 | 0.00 | 1008.5 | |
| 20260504230140 | -17 | 10 | 17.7 | 25.7 | 0.00 | 0.00 | 0.00 | 1008.5 | |
| 20260504225630 | -17 | 10 | 19.3 | 25.7 | 0.00 | 0.00 | 0.00 | 1008.5 | |
| 20260504225121 | -17 | 10 | 19.3 | 25.7 | 0.00 | 0.00 | 0.00 | 1008.4 | |
| 20260504224602 | -17 | 10 | 17.7 | 25.7 | 0.00 | 0.00 | 0.00 | 1008.5 | |
| 20260504223819 | -17 | 171 | 17.7 | 25.7 | 0.00 | 0.00 | 0.00 | 1008.4 | |
| 20260504223546 | -17 | 158 | 19.3 | 27.4 | 0.00 | 0.00 | 0.00 | 1008.4 | |
| 20260504222803 | -17 | 10 | 19.3 | 27.4 | 0.00 | 0.00 | 0.00 | 1008.5 | |
| 20260504222255 | -17 | 138 | 20.9 | 24.1 | 0.00 | 0.00 | 0.00 | 1008.5 | |
| 20260504221747 | -17 | 150 | 20.9 | 24.1 | 0.00 | 0.00 | 0.00 | 1008.6 | |
| 20260504221243 | -17 | 146 | 20.9 | 25.7 | 0.00 | 0.00 | 0.00 | 1008.7 | |
| 20260504220729 | -17 | 10 | 19.3 | 25.7 | 0.00 | 0.00 | 0.00 | 1008.6 | |
| 20260504220221 | -17 | 10 | 19.3 | 24.1 | 0.00 | 0.00 | 0.00 | 1008.6 | |
| 20260504215717 | -17 | 10 | 19.3 | 24.1 | 0.00 | 0.00 | 0.00 | 1008.8 | |
| 20260504215213 | -17 | 10 | 20.9 | 24.1 | 0.00 | 0.00 | 0.00 | 1008.8 | |
| 20260504214709 | -17 | 140 | 19.3 | 24.1 | 0.00 | 0.00 | 0.00 | 1008.9 | |
| 20260504214203 | -17 | 10 | 17.7 | 25.7 | 0.00 | 0.00 | 0.00 | 1009.0 | |
| 20260504213659 | -17 | 10 | 17.7 | 22.5 | 0.00 | 0.00 | 0.00 | 1009.1 | |
| 20260504213152 | -17 | 163 | 19.3 | 22.5 | 0.00 | 0.00 | 0.00 | 1009.1 | |
| 20260504212651 | -17 | 10 | 19.3 | 22.5 | 0.00 | 0.00 | 0.00 | 1009.2 | |
| 20260504212148 | -17 | 10 | 17.7 | 22.5 | 0.00 | 0.00 | 0.00 | 1009.3 | |
| 20260504211645 | -17 | 10 | 19.3 | 22.5 | 0.00 | 0.00 | 0.00 | 1009.5 | |
| 20260504211414 | -17 | 10 | 19.3 | 24.1 | 0.00 | 0.00 | 0.00 | 1009.6 | |
| 20260504210907 | -17 | 10 | 19.3 | 24.1 | 0.00 | 0.00 | 0.00 | 1009.6 | |
| 20260504210133 | -17 | 10 | 17.7 | 24.1 | 0.00 | 0.00 | 0.00 | 1009.7 | |
| 20260504205628 | -17 | 10 | 19.3 | 24.1 | 0.00 | 0.00 | 0.00 | 1009.7 | |
| 20260504205353 | -17 | 10 | 19.3 | 24.1 | 0.00 | 0.00 | 0.00 | 1009.8 | |
| 20260504204615 | -17 | 10 | 19.3 | 24.1 | 0.00 | 0.00 | 0.00 | 1009.8 | |
| 20260504204112 | -17 | 10 | 19.3 | 24.1 | 0.00 | 0.00 | 0.00 | 1009.9 | |
| 20260504203557 | -17 | 10 | 19.3 | 24.1 | 0.00 | 0.00 | 0.00 | 1009.9 | |
| 20260504203054 | -17 | 10 | 17.7 | 24.1 | 0.00 | 0.00 | 0.00 | 1010.0 | |
| 20260504202546 | -17 | 10 | 19.3 | 24.1 | 0.00 | 0.00 | 0.00 | 1010.2 | |
| 20260504202040 | -17 | 10 | 19.3 | 24.1 | 0.00 | 0.00 | 0.00 | 1010.2 | |
| 20260504201032 | -17 | 10 | 19.3 | 24.1 | 0.00 | 0.00 | 0.00 | 1010.1 | |
| 20260504200754 | -17 | 152 | 19.3 | 24.1 | 0.00 | 0.00 | 0.00 | 1010.1 | |
| 20260504200016 | -17 | 10 | 19.3 | 22.5 | 0.00 | 0.00 | 0.00 | 1010.2 | |
| 20260504195514 | -17 | 10 | 19.3 | 25.7 | 0.00 | 0.00 | 0.00 | 1010.4 | |
| 20260504195008 | -17 | 160 | 19.3 | 25.7 | 0.00 | 0.00 | 0.00 | 1010.4 | |
| 20260504194502 | -17 | 10 | 17.7 | 24.1 | 0.00 | 0.00 | 0.00 | 1010.5 | |
| 20260504193958 | -17 | 10 | 17.7 | 24.1 | 0.00 | 0.00 | 0.00 | 1010.6 | |
| 20260504193450 | -17 | 145 | 17.7 | 22.5 | 0.00 | 0.00 | 0.00 | 1010.7 | |
| 20260504192948 | -17 | 10 | 17.7 | 24.1 | 0.00 | 0.00 | 0.00 | 1010.9 | |
| 20260504192438 | -17 | 10 | 17.7 | 24.1 | 0.00 | 0.00 | 0.00 | 1010.9 | |
| 20260504191930 | -17 | 10 | 17.7 | 22.5 | 0.00 | 0.00 | 0.00 | 1010.8 | |
| 20260504191422 | -17 | 10 | 17.7 | 25.7 | 0.00 | 0.00 | 0.00 | 1010.7 | |
| 20260504190408 | -17 | 10 | 19.3 | 25.7 | 0.00 | 0.00 | 0.00 | 1010.7 | |
| 20260504185901 | -17 | 142 | 19.3 | 25.7 | 0.00 | 0.00 | 0.00 | 1010.6 | |
| 20260504185350 | -17 | 10 | 19.3 | 24.1 | 0.00 | 0.00 | 0.00 | 1011.0 | |
| 20260504184840 | -17 | 10 | 19.3 | 24.1 | 0.00 | 0.00 | 0.00 | 1011.1 | |
| 20260504184329 | -17 | 10 | 19.3 | 25.7 | 0.00 | 0.00 | 0.00 | 1011.1 | |
| 20260504183818 | -17 | 10 | 17.7 | 25.7 | 0.00 | 0.00 | 0.00 | 1010.9 | |
| 20260504183308 | -17 | 145 | 17.7 | 22.5 | 0.00 | 0.00 | 0.00 | 1011.0 | |
| 20260504182758 | -17 | 10 | 19.3 | 22.5 | 0.00 | 0.00 | 0.00 | 1011.0 | |
| 20260504182246 | -17 | 10 | 17.7 | 24.1 | 0.00 | 0.00 | 0.00 | 1010.9 | |
| 20260504181737 | -17 | 153 | 17.7 | 22.5 | 0.00 | 0.00 | 0.00 | 1011.0 | |
| 20260504181227 | -17 | 10 | 17.7 | 22.5 | 0.00 | 0.00 | 0.00 | 1011.3 | |
| 20260504180716 | -17 | 10 | 17.7 | 22.5 | 0.00 | 0.00 | 0.00 | 1011.2 | |
| 20260504180157 | -17 | 10 | 17.7 | 24.1 | 0.00 | 0.00 | 0.00 | 1011.4 | |
| 20260504175646 | -17 | 10 | 17.7 | 24.1 | 0.00 | 0.00 | 0.00 | 1011.5 | |
| 20260504175136 | -17 | 154 | 17.7 | 22.5 | 0.00 | 0.00 | 0.00 | 1011.5 | |
| 20260504174626 | -17 | 157 | 17.7 | 22.5 | 0.00 | 0.00 | 0.00 | 1011.5 | |
| 20260504174349 | -17 | 10 | 17.7 | 22.5 | 0.00 | 0.00 | 0.00 | 1011.6 | |
| 20260504173558 | -17 | 10 | 19.3 | 25.7 | 0.00 | 0.00 | 0.00 | 1011.7 | |
| 20260504173050 | -17 | 10 | 19.3 | 25.7 | 0.00 | 0.00 | 0.00 | 1011.7 | |
| 20260504172538 | -17 | 10 | 17.7 | 24.1 | 0.00 | 0.00 | 0.00 | 1011.6 | |
| 20260504172026 | -17 | 167 | 16.1 | 24.1 | 0.00 | 0.00 | 0.00 | 1011.9 | |
| 20260504171520 | -17 | 212 | 16.1 | 20.9 | 0.00 | 0.00 | 0.00 | 1012.0 | |
| 20260504171010 | -17 | 10 | 17.7 | 25.7 | 0.00 | 0.00 | 0.00 | 1011.9 | |
| 20260504170453 | -17 | 10 | 16.1 | 25.7 | 0.00 | 0.00 | 0.00 | 1011.8 | |
| 20260504151109 | -17 | 10 | 16.1 | 20.9 | 0.00 | 0.00 | 0.00 | 1012.4 | |
| 20260504150600 | -17 | 10 | 16.1 | 20.9 | 0.00 | 0.00 | 0.00 | 1012.4 | |
| 20260504141135 | -17 | 203 | 11.3 | 17.7 | 0.00 | 0.00 | 0.00 | 1012.7 | |
| 20260504140355 | -17 | 10 | 12.9 | 19.3 | 0.00 | 0.00 | 0.00 | 1012.8 | |
| 20260504130146 | -17 | 219 | 6.4 | 11.3 | 0.00 | 0.00 | 0.00 | 1012.3 | |
| 20260504110351 | -17 | 10 | 0.0 | 3.2 | 0.00 | 0.00 | 0.00 | 1012.2 | |
| 20260504100244 | -17 | 109 | 0.0 | 1.6 | 0.00 | 0.00 | 0.00 | 1012.5 | |
| 20260504090118 | -17 | 118 | 0.0 | 3.2 | 0.00 | 0.00 | 0.00 | 1012.9 | |
| 20260504081459 | -17 | 127 | 0.0 | 0.0 | 0.00 | 0.00 | 0.00 | 1013.1 | |
| 20260504080950 | -17 | 127 | 0.0 | 0.0 | 0.00 | 0.00 | 0.00 | 1013.1 | |
| 20260504080439 | -17 | 154 | 0.0 | 0.0 | 0.00 | 0.00 | 0.00 | 1013.3 | |
| 20260504080201 | -17 | 110 | 0.0 | 0.0 | 0.00 | 0.00 | 0.00 | 1013.5 |